This demonstration page uses our WeatherBlox Daily Observations layout. Learn more.

Left ArrowRight Arrow

39.92423, -83.80882

Hourly Observations for March 6, 2017

Temp ( °F °C ) Dew Point ( °F °C ) Humidity (%) Winds ( mph kmh ) Pressure ( in mb ) Visibility ( mi km ) Precip ( " mm )
12:56 am 00:56 Cloudy 54 12.2 32 0 43 43 SW 12 19 30.24 1024 10 16.0934 0 0
1:56 am 01:56 Cloudy 54 12.2 36 2.2 51 51 SW 15 24 30.23 1024 10 16.0934 0 0
2:56 am 02:56 Cloudy 53 11.7 40 4.4 61 61 SW 14 22 30.24 1024 10 16.0934 0 0
3:56 am 03:56 Cloudy with Light Rain 52 11.1 41 5 66 66 SW 8 13 30.24 1024 10 16.0934 0 0.0254
4:56 am 04:56 Cloudy 51 10.6 40 4.4 66 66 SSW 7 11 30.24 1024 10 16.0934 0 0.0254
5:56 am 05:56 Cloudy 51 10.6 40 4.4 66 66 S 6 9 30.24 1024 10 16.0934 0 0
6:56 am 06:56 Cloudy with Light Rain 50 10 39 3.9 66 66 S 7 11 30.24 1024 10 16.0934 0 0.0254
7:56 am 07:56 Cloudy 52 11.1 41 5 66 66 S 7 11 30.24 1024 10 16.0934 0 0.0254
8:56 am 08:56 Cloudy 51 10.6 43 6.1 74 74 S 9 15 30.24 1024 10 16.0934 0 0
9:56 am 09:56 Cloudy with Light Rain 50 10 47 8.3 89 89 S 12 19 30.23 1024 10 16.0934 0 0.0254
10:22 am 10:22 Cloudy with Light Rain 50 10 46 8 88 88 S 13 20 30.24 1024 3 4.82802 0 0.0254
10:56 am 10:56 Cloudy with Light Rain 49 9.4 47 8.3 93 93 S 17 28 30.22 1023 5 8.0467 0 0.0254
11:56 am 11:56 Cloudy 51 10.6 49 9.4 92 92 S 13 20 30.19 1022 10 16.0934 0 0.0254
12:22 pm 12:22 Cloudy 52 11 48 9 88 88 S 14 22 30.21 1023 10 16.0934 0 0
12:35 pm 12:35 Cloudy 52 11 48 9 88 88 SSW 12 19 30.18 1022 10 16.0934 0 0
12:56 pm 12:56 Cloudy with Light Rain 53 11.7 49 9.4 86 86 S 15 24 30.16 1021 10 16.0934 0 0.0254
1:56 pm 13:56 Cloudy 54 12.2 49 9.4 83 83 SSW 14 22 30.13 1020 10 16.0934 0 0.0254
2:56 pm 14:56 Cloudy with Light Rain 54 12.2 50 10 87 87 S 14 22 30.12 1020 10 16.0934 0.02 0.508
3:45 pm 15:45 Cloudy with Light Rain 54 12 50 10 88 88 S 14 22 30.09 1019 5 8.0467 0.03 0.762
3:56 pm 15:56 Cloudy with Light Rain 53 11.7 50 10 89 89 S 12 19 30.11 1020 10 16.0934 0.04 1.016
4:56 pm 16:56 Cloudy 53 11.7 51 10.6 93 93 S 9 15 30.09 1019 10 16.0934 0.05 1.27
5:04 pm 17:04 Cloudy with Light Rain 54 12 52 11 94 94 S 12 19 30.09 1019 8 12.87472 0 0.0254
5:29 pm 17:29 Cloudy with Rain 54 12 52 11 94 94 S 14 22 30.09 1019 5 8.0467 0.03 0.762
5:56 pm 17:56 Cloudy 54 12.2 50 10 87 87 S 13 20 30.08 1019 10 16.0934 0.04 1.016
6:03 pm 18:03 Cloudy 54 12 50 10 88 88 S 10 17 30.06 1018 10 16.0934 0 0
6:56 pm 18:56 Cloudy with Light Rain 54 12.2 50 10 87 87 S 14 22 30.07 1018 10 16.0934 0 0.0254
7:56 pm 19:56 Cloudy with Light Rain 53 11.7 51 10.6 93 93 S 12 19 30.07 1018 10 16.0934 0.02 0.508
8:56 pm 20:56 Cloudy with Light Rain 53 11.7 51 10.6 93 93 S 15 24 30.06 1018 10 16.0934 0.05 1.27
9:56 pm 21:56 Cloudy with Light Rain 53 11.7 51 10.6 93 93 S 15 24 30.04 1017 7 11.26538 0.08 2.032
10:56 pm 22:56 Cloudy 54 12.2 50 10 87 87 S 12 19 30.01 1016 10 16.0934 0 0.0254
11:56 pm 23:56 Cloudy 56 13.3 49 9.4 77 77 S 12 19 29.98 1015 10 16.0934 0 0.0254

Powered by AerisWeather